Date String (YYYY-MM-DD hh:mm:ss) UTC,Instrument flags,Ambient pressure (hPa),Sample flow (lpm),Bypass flow (lpm),Sample temperature (°C),Ambient temperature (°C),ASC tube jacket temperature (°C),LED temperature (°C),Box temperature (°C),Sample RH (%),Span deviation,Mass concentration (μg/m³),Mass concentration (μg/m³),Mass concentration (μg/m³)
DateTimeUTC,F1_M11,P_M11,Q1_M11,Q2_M11,T1_M11,T2_M11,T3_M11,T4_M11,T5_M11,U1_M11,ZSPAN_M11,X0_M11,X2_M11,X1_M11
2022-03-15 21:00:00,,0824.4,4.99,0.00,27.6,26.8,00.0,36.4,29.3,03.3,0000.0,0004.38,0001.12,0000.52
2022-03-15 21:01:00,,0824.3,5.02,0.00,27.6,26.8,00.0,36.4,29.4,03.5,0000.0,0005.36,0001.15,0000.51
2022-03-15 21:02:00,,0824.3,5.01,0.00,27.6,26.8,00.0,36.5,29.4,03.3,0000.0,0005.53,0001.18,0000.52
2022-03-15 21:03:00,,0824.2,4.99,0.00,27.6,26.8,00.0,36.5,29.4,03.3,0000.0,0005.16,0001.13,0000.51
2022-03-15 21:04:00,,0824.3,4.99,0.00,27.6,26.8,00.0,36.5,29.4,03.1,0000.0,0004.63,0001.05,0000.51
2022-03-15 21:05:00,,0824.2,4.99,0.00,27.6,26.8,00.0,36.5,29.4,03.2,0000.0,0003.98,0001.03,0000.51
2022-03-15 21:06:00,,0824.2,5.00,0.00,27.6,26.8,00.0,36.5,29.4,03.4,0000.0,0003.16,0001.01,0000.50
2022-03-15 21:07:00,,0824.2,5.03,0.00,27.6,26.8,00.0,36.5,29.4,03.4,0000.0,0003.04,0000.96,0000.48
2022-03-15 21:08:00,,0824.1,5.00,0.00,27.6,26.8,00.0,36.5,29.4,03.2,0000.0,0003.10,0000.96,0000.48
2022-03-15 21:09:00,,0824.2,5.00,0.00,27.6,26.8,00.0,36.5,29.5,03.2,0000.0,0003.56,0001.06,0000.49
2022-03-15 21:10:00,,0824.2,4.99,0.00,27.6,26.8,00.0,36.5,29.4,03.4,0000.0,0005.20,0001.18,0000.51
2022-03-15 21:11:00,,0824.2,5.01,0.00,27.6,26.8,00.0,36.5,29.5,03.3,0000.0,0005.08,0001.16,0000.51
2022-03-15 21:12:00,,0824.2,5.00,0.00,27.6,26.9,00.0,36.5,29.5,03.4,0000.0,0004.31,0001.10,0000.51
2022-03-15 21:13:00,,0824.1,5.00,0.00,27.6,26.9,00.0,36.5,29.4,03.1,0000.0,0004.02,0001.11,0000.51
2022-03-15 21:14:00,,0824.1,5.00,0.00,27.7,26.9,00.0,36.5,29.4,03.3,0000.0,0003.99,0001.10,0000.51
2022-03-15 21:15:00,,0824.1,4.99,0.00,27.7,26.9,00.0,36.5,29.5,03.2,0000.0,0004.15,0001.17,0000.52
2022-03-15 21:16:00,,0824.1,4.99,0.00,27.7,26.9,00.0,36.6,29.4,03.4,0000.0,0004.31,0001.20,0000.52
2022-03-15 21:17:00,,0824.1,5.01,0.00,27.7,26.9,00.0,36.6,29.5,03.3,0000.0,0004.27,0001.19,0000.52
2022-03-15 21:18:00,,0824.1,5.01,0.00,27.7,26.9,00.0,36.6,29.5,03.3,0000.0,0004.21,0001.17,0000.52
2022-03-15 21:19:00,,0824.1,5.01,0.00,27.7,27.0,00.0,36.6,29.6,03.3,0000.0,0004.32,0001.19,0000.52
2022-03-15 21:20:00,,0824.1,5.01,0.00,27.7,27.0,00.0,36.6,29.6,03.4,0000.0,0003.66,0001.03,0000.50
2022-03-15 21:21:00,,0824.0,4.99,0.00,27.7,27.0,00.0,36.6,29.5,03.5,0000.0,0002.22,0000.93,0000.48
2022-03-15 21:22:00,,0824.1,5.00,0.00,27.8,27.0,00.0,36.6,29.6,03.5,0000.0,0002.03,0000.91,0000.48
2022-03-15 21:23:00,,0824.1,5.00,0.00,27.8,27.0,00.0,36.6,29.6,03.2,0000.0,0002.05,0000.92,0000.48
2022-03-15 21:24:00,,0824.1,5.01,0.00,27.8,27.0,00.0,36.6,29.6,03.4,0000.0,0002.60,0000.88,0000.48
2022-03-15 21:25:00,,0824.0,5.01,0.00,27.8,27.0,00.0,36.7,29.6,03.7,0000.0,0003.12,0000.91,0000.48
2022-03-15 21:26:00,,0824.1,5.00,0.00,27.8,27.0,00.0,36.7,29.6,03.9,0000.0,0003.10,0000.89,0000.48
2022-03-15 21:27:00,,0824.1,5.00,0.00,27.8,27.0,00.0,36.7,29.6,03.7,0000.0,0003.03,0000.87,0000.48
2022-03-15 21:28:00,,0824.1,5.00,0.00,27.8,27.0,00.0,36.7,29.6,03.6,0000.0,0003.10,0000.88,0000.48
2022-03-15 21:29:00,,0824.1,5.00,0.00,27.8,27.1,00.0,36.7,29.6,03.5,0000.0,0003.22,0000.90,0000.48
2022-03-15 21:30:00,,0824.1,5.00,0.00,27.8,27.1,00.0,36.7,29.6,03.5,0000.0,0003.11,0000.89,0000.49
2022-03-15 21:31:00,,0824.1,5.00,0.00,27.8,27.1,00.0,36.7,29.6,03.6,0000.0,0003.08,0000.89,0000.50
2022-03-15 21:32:00,,0824.1,5.02,0.00,27.8,27.1,00.0,36.7,29.6,03.5,0000.0,0003.05,0000.90,0000.51
2022-03-15 21:33:00,,0824.1,4.99,0.00,27.8,27.1,00.0,36.7,29.5,03.6,0000.0,0003.15,0000.94,0000.51
2022-03-15 21:34:00,,0824.1,4.99,0.00,27.8,27.1,00.0,36.7,29.6,03.4,0000.0,0003.12,0000.92,0000.50
2022-03-15 21:35:00,,0824.1,4.99,0.00,27.8,27.1,00.0,36.7,29.6,03.6,0000.0,0002.48,0000.92,0000.49
2022-03-15 21:36:00,,0824.1,5.02,0.00,27.9,27.1,00.0,36.7,29.7,03.5,0000.0,0002.10,0000.90,0000.49
2022-03-15 21:37:00,,0824.1,5.00,0.00,27.9,27.1,00.0,36.7,29.7,03.4,0000.0,0002.43,0000.92,0000.49
2022-03-15 21:38:00,,0824.1,5.00,0.00,27.9,27.1,00.0,36.7,29.7,03.5,0000.0,0002.42,0000.93,0000.48
2022-03-15 21:39:00,,0824.1,5.00,0.00,27.9,27.1,00.0,36.8,29.6,03.5,0000.0,0002.43,0000.95,0000.49
2022-03-15 21:40:00,,0824.1,5.00,0.00,27.9,27.1,00.0,36.8,29.6,03.5,0000.0,0002.34,0000.94,0000.49
2022-03-15 21:41:00,,0824.1,5.00,0.00,27.9,27.1,00.0,36.8,29.6,03.7,0000.0,0002.38,0000.96,0000.49
2022-03-15 21:42:00,,0824.1,5.01,0.00,27.9,27.1,00.0,36.8,29.6,03.8,0000.0,0002.33,0000.94,0000.48
2022-03-15 21:43:00,,0824.1,5.00,0.00,27.9,27.2,00.0,36.8,29.6,03.3,0000.0,0002.12,0000.89,0000.47
2022-03-15 21:44:00,,0824.1,5.00,0.00,27.9,27.2,00.0,36.8,29.7,03.5,0000.0,0002.11,0000.87,0000.47
2022-03-15 21:45:00,,0824.2,4.99,0.00,27.9,27.1,00.0,36.8,29.7,03.4,0000.0,0002.09,0000.86,0000.48
2022-03-15 21:46:00,,0824.2,5.00,0.00,27.9,27.1,00.0,36.8,29.6,03.6,0000.0,0002.00,0000.86,0000.50
2022-03-15 21:47:00,,0824.1,5.01,0.00,27.9,27.1,00.0,36.8,29.7,03.5,0000.0,0001.97,0000.86,0000.50
2022-03-15 21:48:00,,0824.2,5.01,0.00,27.9,27.1,00.0,36.8,29.7,03.5,0000.0,0001.68,0000.85,0000.51
2022-03-15 21:49:00,,0824.2,5.00,0.00,27.9,27.1,00.0,36.8,29.7,03.6,0000.0,0001.61,0000.81,0000.51
2022-03-15 21:50:00,,0824.2,5.00,0.00,27.9,27.1,00.0,36.8,29.7,03.6,0000.0,0001.60,0000.80,0000.50
2022-03-15 21:51:00,,0824.2,4.99,0.00,27.9,27.1,00.0,36.8,29.7,03.5,0000.0,0001.69,0000.80,0000.50
2022-03-15 21:52:00,,0824.2,5.00,0.00,27.9,27.1,00.0,36.8,29.7,03.6,0000.0,0001.75,0000.80,0000.51
2022-03-15 21:53:00,,0824.2,5.01,0.00,27.9,27.1,00.0,36.8,29.7,03.6,0000.0,0001.75,0000.80,0000.51
2022-03-15 21:54:00,,0824.1,5.00,0.00,27.9,27.1,00.0,36.8,29.7,03.6,0000.0,0001.78,0000.81,0000.51
2022-03-15 21:55:00,,0824.2,4.99,0.00,27.9,27.1,00.0,36.8,29.7,03.7,0000.0,0001.84,0000.85,0000.52
2022-03-15 21:56:00,,0824.2,4.99,0.00,27.9,27.1,00.0,36.8,29.6,03.6,0000.0,0001.93,0000.89,0000.52
2022-03-15 21:57:00,,0824.2,5.00,0.00,27.9,27.2,00.0,36.8,29.7,03.6,0000.0,0002.14,0000.96,0000.53
2022-03-15 21:58:00,,0824.2,5.02,0.00,27.9,27.2,00.0,36.8,29.7,03.8,0000.0,0002.08,0000.96,0000.52
2022-03-15 21:59:00,,0824.2,5.01,0.00,27.9,27.2,00.0,36.8,29.7,03.6,0000.0,0002.01,0000.96,0000.52
